| time (UTC) | temp F | wind direction | speed MPH | gust MPH | rain 1hr in | rain 24hr in | rain mn in | humidity % | barometer mb |
| 20260506062007 | 55 | 160 | 6.0 | 7.0 | 0.00 | 0.00 | 0.00 | 91 | 1009.1 |
| 20260506061508 | 54 | 153 | 5.0 | 7.0 | 0.00 | 0.00 | 0.00 | 90 | 1008.8 |
| 20260506061008 | 54 | 152 | 6.0 | 9.0 | 0.00 | 0.00 | 0.00 | 91 | 1008.9 |
| 20260506060507 | 54 | 151 | 8.0 | 10.0 | 0.00 | 0.00 | 0.00 | 92 | 1008.9 |
| 20260506051008 | 53 | 157 | 9.0 | 12.0 | 0.00 | 0.00 | 0.00 | 90 | 1009.0 |
| 20260506050508 | 53 | 167 | 8.0 | 13.0 | 0.00 | 0.00 | 0.00 | 91 | 1009.0 |
| 20260506045008 | 53 | 146 | 10.0 | 11.0 | 0.00 | 0.00 | 0.00 | 93 | 1009.0 |
| 20260506044507 | 53 | 151 | 11.0 | 12.0 | 0.00 | 0.00 | 0.00 | 93 | 1008.8 |
| 20260506044008 | 53 | 137 | 8.0 | 10.0 | 0.00 | 0.00 | 0.00 | 93 | 1008.7 |
| 20260506043508 | 53 | 157 | 6.0 | 10.0 | 0.00 | 0.00 | 0.00 | 94 | 1008.6 |
| 20260506043007 | 52 | 139 | 8.0 | 10.0 | 0.00 | 0.00 | 0.00 | 94 | 1008.7 |
| 20260506042006 | 52 | 128 | 6.0 | 8.0 | 0.00 | 0.00 | 0.00 | 94 | 1008.4 |
| 20260506041507 | 52 | 157 | 6.0 | 7.0 | 0.00 | 0.00 | 0.00 | 94 | 1008.6 |
| 20260506041007 | 52 | 111 | 7.0 | 8.0 | 0.00 | 0.00 | 0.00 | 95 | 1008.7 |
| 20260506040507 | 52 | 153 | 7.0 | 8.0 | 0.00 | 0.00 | 0.00 | 96 | 1008.6 |
| 20260506040008 | 52 | 155 | 6.0 | 7.0 | 0.00 | 0.00 | 0.00 | 95 | 1008.4 |
| 20260506035507 | 52 | 159 | 6.0 | 6.0 | 0.00 | 0.00 | 0.00 | 95 | 1008.4 |
| 20260506035007 | 52 | 160 | 4.0 | 6.0 | 0.00 | 0.00 | 0.00 | 96 | 1008.2 |
| 20260506034508 | 51 | 172 | 5.0 | 5.0 | 0.00 | 0.00 | 0.00 | 97 | 1008.1 |
| 20260506034008 | 51 | 188 | 6.0 | 7.0 | 0.00 | 0.00 | 0.00 | 98 | 1008.2 |
| 20260506033508 | 51 | 186 | 5.0 | 5.0 | 0.00 | 0.00 | 0.00 | 98 | 1008.1 |
| 20260506033008 | 51 | 173 | 6.0 | 6.0 | 0.00 | 0.00 | 0.00 | 97 | 1008.2 |
| 20260506032508 | 51 | 189 | 5.0 | 6.0 | 0.00 | 0.00 | 0.00 | 97 | 1008.1 |
| 20260506032008 | 51 | 201 | 4.0 | 4.0 | 0.00 | 0.00 | 0.00 | 98 | 1008.2 |
| 20260506031508 | 51 | 159 | 2.0 | 4.0 | 0.00 | 0.00 | 0.00 | 98 | 1008.1 |
| 20260506031007 | 51 | 156 | 4.0 | 5.0 | 0.00 | 0.00 | 0.00 | 98 | 1008.1 |
| 20260506030508 | 52 | 144 | 2.0 | 5.0 | 0.00 | 0.00 | 0.00 | 97 | 1008.1 |
| 20260506030008 | 52 | 154 | 5.0 | 5.0 | 0.00 | 0.00 | 0.00 | 97 | 1008.0 |
| 20260506025507 | 52 | 163 | 5.0 | 6.0 | 0.00 | 0.00 | 0.00 | 97 | 1008.4 |
| 20260506025008 | 52 | 149 | 5.0 | 5.0 | 0.00 | 0.00 | 0.00 | 98 | 1008.4 |
| 20260506024008 | 52 | 133 | 6.0 | 7.0 | 0.00 | 0.00 | 0.00 | 98 | 1008.4 |
| 20260506023509 | 52 | 157 | 7.0 | 9.0 | 0.00 | 0.00 | 0.00 | 98 | 1008.5 |
| 20260506023007 | 52 | 180 | 6.0 | 6.0 | 0.00 | 0.00 | 0.00 | 98 | 1008.4 |
| 20260506022507 | 52 | 135 | 6.0 | 7.0 | 0.00 | 0.00 | 0.00 | 98 | 1008.4 |
| 20260506022007 | 52 | 128 | 6.0 | 8.0 | 0.00 | 0.00 | 0.00 | 97 | 1008.4 |
| 20260506021508 | 52 | 152 | 6.0 | 6.0 | 0.00 | 0.00 | 0.00 | 97 | 1008.6 |
| 20260506021009 | 52 | 207 | 6.0 | 6.0 | 0.00 | 0.00 | 0.00 | 98 | 1008.6 |
| 20260506020508 | 52 | 191 | 6.0 | 6.0 | 0.00 | 0.00 | 0.00 | 99 | 1008.6 |
| 20260506020008 | 52 | 191 | 5.0 | 7.0 | 0.00 | 0.00 | 0.00 | 99 | 1008.5 |
| 20260506015506 | 52 | 176 | 6.0 | 7.0 | 0.00 | 0.00 | 0.00 | 99 | 1008.5 |
| 20260506015007 | 53 | 167 | 5.0 | 6.0 | 0.00 | 0.00 | 0.00 | 99 | 1008.4 |
| 20260506014507 | 53 | 139 | 5.0 | 5.0 | 0.00 | 0.00 | 0.00 | 99 | 1008.4 |
| 20260506014007 | 53 | 129 | 6.0 | 7.0 | 0.00 | 0.00 | 0.00 | 99 | 1008.3 |
| 20260506013508 | 53 | 167 | 5.0 | 6.0 | 0.00 | 0.00 | 0.00 | 98 | 1008.2 |
| 20260506013008 | 53 | 152 | 5.0 | 7.0 | 0.00 | 0.00 | 0.00 | 98 | 1008.3 |
| 20260506012507 | 53 | 181 | 6.0 | 8.0 | 0.00 | 0.00 | 0.00 | 98 | 1008.3 |
| 20260506012007 | 53 | 156 | 5.0 | 9.0 | 0.00 | 0.00 | 0.00 | 98 | 1008.2 |
| 20260506011507 | 53 | 186 | 6.0 | 7.0 | 0.00 | 0.00 | 0.00 | 98 | 1008.1 |
| 20260506011008 | 53 | 171 | 9.0 | 11.0 | 0.00 | 0.00 | 0.00 | 98 | 1008.2 |
| 20260506010507 | 53 | 151 | 7.0 | 8.0 | 0.00 | 0.00 | 0.00 | 98 | 1008.0 |
| 20260506010007 | 54 | 138 | 5.0 | 7.0 | 0.00 | 0.00 | 0.00 | 99 | 1008.1 |
| 20260506005507 | 54 | 127 | 8.0 | 10.0 | 0.00 | 0.00 | 0.00 | 99 | 1008.1 |
| 20260506005007 | 54 | 131 | 10.0 | 11.0 | 0.00 | 0.00 | 0.00 | 99 | 1008.3 |
| 20260506004508 | 54 | 143 | 8.0 | 9.0 | 0.00 | 0.00 | 0.00 | 99 | 1008.2 |
| 20260506004007 | 54 | 126 | 8.0 | 9.0 | 0.00 | 0.00 | 0.00 | 99 | 1008.2 |
| 20260506003507 | 54 | 128 | 9.0 | 10.0 | 0.00 | 0.00 | 0.00 | 99 | 1008.2 |
| 20260506003008 | 54 | 125 | 10.0 | 11.0 | 0.00 | 0.00 | 0.00 | 99 | 1008.2 |
| 20260506002506 | 54 | 130 | 10.0 | 10.0 | 0.00 | 0.00 | 0.00 | 99 | 1008.2 |
| 20260506002007 | 54 | 130 | 7.0 | 7.0 | 0.00 | 0.00 | 0.00 | 98 | 1008.4 |
| 20260506001507 | 54 | 125 | 5.0 | 6.0 | 0.00 | 0.00 | 0.00 | 98 | 1008.3 |
| 20260506001008 | 55 | 131 | 5.0 | 6.0 | 0.00 | 0.00 | 0.00 | 97 | 1008.2 |
| 20260506000508 | 55 | 128 | 5.0 | 5.0 | 0.00 | 0.00 | 0.00 | 96 | 1008.2 |
| 20260506000009 | 55 | 116 | 6.0 | 6.0 | 0.00 | 0.00 | 0.00 | 96 | 1008.0 |
| 20260505235507 | 54 | 125 | 5.0 | 5.0 | 0.00 | 0.00 | 0.00 | 97 | 1007.9 |
| 20260505235007 | 54 | 124 | 7.0 | 8.0 | 0.00 | 0.00 | 0.00 | 98 | 1008.3 |
| 20260505234507 | 54 | 132 | 5.0 | 6.0 | 0.00 | 0.00 | 0.00 | 98 | 1008.2 |
| 20260505234006 | 54 | 111 | 5.0 | 5.0 | 0.00 | 0.00 | 0.00 | 98 | 1008.2 |
| 20260505233508 | 54 | 110 | 6.0 | 7.0 | 0.00 | 0.00 | 0.00 | 98 | 1008.0 |
| 20260505233007 | 54 | 129 | 5.0 | 6.0 | 0.00 | 0.00 | 0.00 | 98 | 1008.3 |
| 20260505232507 | 54 | 132 | 6.0 | 6.0 | 0.00 | 0.00 | 0.00 | 98 | 1008.3 |
| 20260505232007 | 54 | 123 | 6.0 | 6.0 | 0.00 | 0.00 | 0.00 | 98 | 1008.5 |
| 20260505231507 | 54 | 114 | 5.0 | 6.0 | 0.00 | 0.00 | 0.00 | 98 | 1008.4 |
| 20260505231008 | 54 | 108 | 9.0 | 11.0 | 0.00 | 0.00 | 0.00 | 99 | 1008.3 |
| 20260505230007 | 54 | 115 | 11.0 | 13.0 | 0.00 | 0.00 | 0.00 | 98 | 1008.6 |
| 20260505225507 | 54 | 110 | 12.0 | 13.0 | 0.00 | 0.00 | 0.00 | 98 | 1008.8 |
| 20260505225007 | 54 | 119 | 16.0 | 17.0 | 0.00 | 0.00 | 0.00 | 98 | 1009.0 |
| 20260505224507 | 54 | 111 | 13.0 | 14.0 | 0.00 | 0.00 | 0.00 | 97 | 1008.7 |
| 20260505224008 | 54 | 91 | 8.0 | 9.0 | 0.00 | 0.00 | 0.00 | 97 | 1008.7 |
| 20260505223507 | 54 | 102 | 8.0 | 9.0 | 0.00 | 0.00 | 0.00 | 97 | 1008.9 |
| 20260505223009 | 54 | 103 | 8.0 | 8.0 | 0.00 | 0.00 | 0.00 | 97 | 1008.6 |
| 20260505222507 | 54 | 83 | 8.0 | 9.0 | 0.00 | 0.00 | 0.00 | 97 | 1008.7 |
| 20260505222007 | 54 | 107 | 7.0 | 8.0 | 0.00 | 0.00 | 0.00 | 97 | 1008.9 |
| 20260505221508 | 54 | 76 | 5.0 | 8.0 | 0.00 | 0.00 | 0.00 | 97 | 1008.6 |
| 20260505221008 | 54 | 63 | 12.0 | 12.0 | 0.00 | 0.00 | 0.00 | 96 | 1008.5 |
| 20260505220507 | 54 | 53 | 7.0 | 8.0 | 0.00 | 0.00 | 0.00 | 97 | 1008.8 |
| 20260505220008 | 55 | 55 | 9.0 | 10.0 | 0.00 | 0.00 | 0.00 | 98 | 1008.8 |
| 20260505215507 | 55 | 49 | 7.0 | 8.0 | 0.00 | 0.00 | 0.00 | 98 | 1008.8 |
| 20260505214507 | 55 | 46 | 4.0 | 6.0 | 0.00 | 0.00 | 0.00 | 98 | 1009.0 |
| 20260505214007 | 55 | 58 | 5.0 | 6.0 | 0.00 | 0.00 | 0.00 | 98 | 1008.8 |
| 20260505213507 | 55 | 33 | 7.0 | 9.0 | 0.00 | 0.00 | 0.00 | 98 | 1009.0 |
| 20260505213007 | 55 | 43 | 8.0 | 9.0 | 0.00 | 0.00 | 0.00 | 98 | 1009.1 |
| 20260505212508 | 55 | 8 | 2.0 | 5.0 | 0.00 | 0.00 | 0.00 | 98 | 1008.7 |
| 20260505212007 | 55 | 288 | 2.0 | 5.0 | 0.00 | 0.00 | 0.00 | 98 | 1008.8 |
| 20260505211508 | 55 | 259 | 6.0 | 10.0 | 0.00 | 0.00 | 0.00 | 97 | 1008.7 |
| 20260505211007 | 56 | 257 | 3.0 | 4.0 | 0.00 | 0.00 | 0.00 | 96 | 1008.8 |
| 20260505210507 | 56 | 281 | 7.0 | 8.0 | 0.00 | 0.00 | 0.00 | 95 | 1008.5 |
| 20260505210008 | 56 | 257 | 4.0 | 6.0 | 0.00 | 0.00 | 0.00 | 95 | 1008.5 |
| 20260505205507 | 56 | 334 | 9.0 | 9.0 | 0.00 | 0.00 | 0.00 | 95 | 1008.1 |
| 20260505205007 | 56 | 294 | 4.0 | 7.0 | 0.00 | 0.00 | 0.00 | 95 | 1008.2 |
| 20260505204508 | 57 | 196 | 7.0 | 10.0 | 0.00 | 0.00 | 0.00 | 94 | 1008.5 |
| 20260505204007 | 57 | 217 | 5.0 | 12.0 | 0.00 | 0.00 | 0.00 | 92 | 1008.4 |
| 20260505203507 | 57 | 216 | 7.0 | 10.0 | 0.00 | 0.00 | 0.00 | 89 | 1008.0 |
| 20260505203009 | 58 | 57 | 0.0 | 5.0 | 0.00 | 0.00 | 0.00 | 82 | 1007.5 |
| 20260505202508 | 60 | 323 | 5.0 | 5.0 | 0.00 | 0.00 | 0.00 | 75 | 1007.6 |
| 20260505202008 | 62 | 278 | 3.0 | 3.0 | 0.00 | 0.00 | 0.00 | 71 | 1007.6 |
| 20260505201508 | 62 | 320 | 7.0 | 8.0 | 0.00 | 0.00 | 0.00 | 67 | 1007.1 |
| 20260505201007 | 62 | 310 | 5.0 | 5.0 | 0.00 | 0.00 | 0.00 | 65 | 1007.1 |
| 20260505200508 | 62 | 311 | 2.0 | 4.0 | 0.00 | 0.00 | 0.00 | 65 | 1007.0 |
| 20260505200008 | 62 | 229 | 4.0 | 4.0 | 0.00 | 0.00 | 0.00 | 65 | 1007.3 |
| 20260505195506 | 62 | 192 | 3.0 | 4.0 | 0.00 | 0.00 | 0.00 | 66 | 1007.3 |
| 20260505195008 | 62 | 103 | 4.0 | 5.0 | 0.00 | 0.00 | 0.00 | 65 | 1007.0 |
| 20260505194508 | 62 | 92 | 4.0 | 5.0 | 0.00 | 0.00 | 0.00 | 68 | 1007.2 |
| 20260505194007 | 60 | 209 | 10.0 | 12.0 | 0.00 | 0.00 | 0.00 | 71 | 1007.1 |
| 20260505193507 | 61 | 89 | 2.0 | 4.0 | 0.00 | 0.00 | 0.00 | 70 | 1006.6 |
| 20260505192507 | 61 | 73 | 15.0 | 16.0 | 0.00 | 0.00 | 0.00 | 69 | 1006.5 |
| 20260505192007 | 61 | 75 | 13.0 | 17.0 | 0.00 | 0.00 | 0.00 | 69 | 1006.2 |
| 20260505191508 | 62 | 81 | 11.0 | 17.0 | 0.00 | 0.00 | 0.00 | 68 | 1006.4 |
| 20260505191008 | 62 | 81 | 17.0 | 18.0 | 0.00 | 0.00 | 0.00 | 67 | 1006.4 |
| 20260505190507 | 62 | 83 | 17.0 | 19.0 | 0.00 | 0.00 | 0.00 | 66 | 1006.2 |
| 20260505190007 | 63 | 85 | 17.0 | 22.0 | 0.00 | 0.00 | 0.00 | 65 | 1006.4 |
| 20260505185507 | 62 | 88 | 21.0 | 21.0 | 0.00 | 0.00 | 0.00 | 66 | 1006.5 |
| 20260505185008 | 62 | 93 | 22.0 | 23.0 | 0.00 | 0.00 | 0.00 | 66 | 1006.3 |
| 20260505184507 | 62 | 84 | 18.0 | 23.0 | 0.00 | 0.00 | 0.00 | 69 | 1006.6 |
| 20260505184008 | 62 | 81 | 18.0 | 21.0 | 0.00 | 0.00 | 0.00 | 68 | 1006.6 |
| 20260505183507 | 62 | 86 | 22.0 | 22.0 | 0.00 | 0.00 | 0.00 | 66 | 1006.6 |
| 20260505183009 | 30 | 0 | 0.0 | 0.0 | 0.00 | 0.00 | 0.00 | 100 | 1006.5 |
| 20260505182507 | 30 | 0 | 0.0 | 0.0 | 0.00 | 0.00 | 0.00 | 100 | 1006.4 |
| 20260505182008 | 64 | 98 | 23.0 | 25.0 | 0.00 | 0.00 | 0.00 | 62 | 1006.4 |
| 20260505181508 | 64 | 98 | 23.0 | 25.0 | 0.00 | 0.00 | 0.00 | 62 | 1006.1 |
| 20260505181008 | 64 | 94 | 22.0 | 25.0 | 0.00 | 0.00 | 0.00 | 61 | 1006.4 |
| 20260505180507 | 64 | 95 | 21.0 | 23.0 | 0.00 | 0.00 | 0.00 | 61 | 1006.4 |
| 20260505180007 | 64 | 103 | 23.0 | 24.0 | 0.00 | 0.00 | 0.00 | 61 | 1006.5 |
| 20260505175507 | 64 | 101 | 22.0 | 24.0 | 0.00 | 0.00 | 0.00 | 61 | 1006.7 |
| 20260505175007 | 64 | 107 | 23.0 | 26.0 | 0.00 | 0.00 | 0.00 | 60 | 1006.7 |
| 20260505174507 | 64 | 102 | 23.0 | 25.0 | 0.00 | 0.00 | 0.00 | 61 | 1006.7 |
| 20260505174007 | 64 | 109 | 20.0 | 23.0 | 0.00 | 0.00 | 0.00 | 62 | 1007.0 |
| 20260505173508 | 64 | 107 | 24.0 | 27.0 | 0.00 | 0.00 | 0.00 | 61 | 1007.0 |
| 20260505172508 | 64 | 108 | 30.0 | 31.0 | 0.00 | 0.00 | 0.00 | 61 | 1006.9 |
| 20260505172008 | 64 | 108 | 28.0 | 36.0 | 0.00 | 0.00 | 0.00 | 61 | 1007.2 |
| 20260505171507 | 65 | 113 | 33.0 | 37.0 | 0.00 | 0.00 | 0.00 | 61 | 1007.3 |
| 20260505171008 | 65 | 109 | 27.0 | 30.0 | 0.00 | 0.00 | 0.00 | 62 | 1007.1 |
| 20260505170507 | 65 | 106 | 27.0 | 27.0 | 0.00 | 0.00 | 0.00 | 62 | 1007.4 |
| 20260505170007 | 65 | 112 | 29.0 | 32.0 | 0.00 | 0.00 | 0.00 | 61 | 1007.4 |
| 20260505165508 | 65 | 117 | 26.0 | 31.0 | 0.00 | 0.00 | 0.00 | 60 | 1007.5 |
| 20260505165007 | 65 | 106 | 25.0 | 30.0 | 0.00 | 0.00 | 0.00 | 61 | 1007.5 |
| 20260505164508 | 65 | 114 | 31.0 | 33.0 | 0.00 | 0.00 | 0.00 | 62 | 1007.9 |
| 20260505164007 | 66 | 113 | 25.0 | 26.0 | 0.00 | 0.00 | 0.00 | 61 | 1007.8 |
| 20260505163508 | 66 | 111 | 22.0 | 26.0 | 0.00 | 0.00 | 0.00 | 62 | 1007.7 |
| 20260505163009 | 66 | 114 | 24.0 | 26.0 | 0.00 | 0.00 | 0.00 | 61 | 1007.6 |
| 20260505162508 | 66 | 116 | 25.0 | 31.0 | 0.00 | 0.00 | 0.00 | 59 | 1007.5 |
| 20260505162006 | 67 | 114 | 31.0 | 35.0 | 0.00 | 0.00 | 0.00 | 56 | 1007.7 |
| 20260505161508 | 68 | 119 | 25.0 | 29.0 | 0.00 | 0.00 | 0.00 | 57 | 1007.8 |
| 20260505161008 | 70 | 104 | 25.0 | 32.0 | 0.00 | 0.00 | 0.00 | 54 | 1007.7 |
| 20260505160507 | 70 | 101 | 21.0 | 24.0 | 0.00 | 0.00 | 0.00 | 53 | 1007.6 |
| 20260505153007 | 72 | 103 | 23.0 | 25.0 | 0.00 | 0.00 | 0.00 | 47 | 1007.9 |
| 20260505152507 | 71 | 100 | 17.0 | 19.0 | 0.00 | 0.00 | 0.00 | 48 | 1008.0 |
| 20260505152007 | 70 | 126 | 23.0 | 24.0 | 0.00 | 0.00 | 0.00 | 48 | 1007.9 |
| 20260505151508 | 71 | 116 | 23.0 | 24.0 | 0.00 | 0.00 | 0.00 | 46 | 1008.0 |
| 20260505151007 | 72 | 107 | 15.0 | 23.0 | 0.00 | 0.00 | 0.00 | 44 | 1008.3 |
| 20260505150508 | 74 | 100 | 15.0 | 17.0 | 0.00 | 0.00 | 0.00 | 44 | 1008.3 |
| 20260505140508 | 72 | 69 | 12.0 | 13.0 | 0.00 | 0.00 | 0.00 | 45 | 1008.8 |
| 20260505125007 | 72 | 92 | 20.0 | 22.0 | 0.00 | 0.00 | 0.00 | 47 | 1009.6 |
| 20260505124508 | 72 | 88 | 19.0 | 21.0 | 0.00 | 0.00 | 0.00 | 47 | 1009.4 |
| 20260505124008 | 71 | 95 | 18.0 | 20.0 | 0.00 | 0.00 | 0.00 | 48 | 1009.4 |
| 20260505123508 | 72 | 96 | 16.0 | 20.0 | 0.00 | 0.00 | 0.00 | 47 | 1009.3 |
| 20260505123008 | 72 | 83 | 17.0 | 18.0 | 0.00 | 0.00 | 0.00 | 48 | 1009.5 |
| 20260505122508 | 72 | 74 | 16.0 | 17.0 | 0.00 | 0.00 | 0.00 | 49 | 1009.3 |
| 20260505122007 | 72 | 94 | 21.0 | 21.0 | 0.00 | 0.00 | 0.00 | 50 | 1009.4 |
| 20260505121507 | 71 | 89 | 22.0 | 23.0 | 0.00 | 0.00 | 0.00 | 49 | 1009.6 |
| 20260505121009 | 0 | 0 | 0.0 | 0.0 | 0.00 | 0.00 | 0.00 | 100 | 1009.6 |
| 20260505120508 | 0 | 0 | 0.0 | 0.0 | 0.00 | 0.00 | 0.00 | 100 | 1009.7 |
| 20260505120007 | 30 | 0 | 0.0 | 0.0 | 0.00 | 0.00 | 0.00 | 100 | 1009.8 |
| 20260505115507 | 30 | 0 | 0.0 | 0.0 | 0.00 | 0.00 | 0.00 | 100 | 1009.7 |
| 20260505115007 | 30 | 0 | 0.0 | 0.0 | 0.00 | 0.00 | 0.00 | 100 | 1009.8 |
| 20260505114507 | 30 | 0 | 0.0 | 0.0 | 0.00 | 0.00 | 0.00 | 100 | 1009.7 |
| 20260505113509 | 30 | 0 | 0.0 | 0.0 | 0.00 | 0.00 | 0.00 | 100 | 1010.0 |
| 20260505113008 | 30 | 0 | 0.0 | 0.0 | 0.00 | 0.00 | 0.00 | 100 | 1009.9 |
| 20260505112509 | 30 | 0 | 0.0 | 0.0 | 0.00 | 0.00 | 0.00 | 100 | 1010.1 |
| 20260505112008 | 30 | 0 | 0.0 | 0.0 | 0.00 | 0.00 | 0.00 | 100 | 1010.1 |
| 20260505111507 | 30 | 0 | 0.0 | 0.0 | 0.00 | 0.00 | 0.00 | 100 | 1010.1 |
| 20260505111008 | 69 | 58 | 16.0 | 16.0 | 0.00 | 0.00 | 0.00 | 51 | 1010.2 |
| 20260505110507 | 69 | 58 | 16.0 | 16.0 | 0.00 | 0.00 | 0.00 | 51 | 1010.3 |
| 20260505101508 | 68 | 89 | 14.0 | 15.0 | 0.00 | 0.00 | 0.00 | 54 | 1010.5 |
| 20260505101007 | 68 | 86 | 13.0 | 14.0 | 0.00 | 0.00 | 0.00 | 53 | 1010.4 |
| 20260505100507 | 68 | 97 | 19.0 | 19.0 | 0.00 | 0.00 | 0.00 | 54 | 1010.3 |
| 20260505100008 | 68 | 92 | 18.0 | 20.0 | 0.00 | 0.00 | 0.00 | 56 | 1010.3 |
| 20260505095008 | 68 | 85 | 17.0 | 19.0 | 0.00 | 0.00 | 0.00 | 56 | 1010.5 |
| 20260505094507 | 68 | 88 | 14.0 | 14.0 | 0.00 | 0.00 | 0.00 | 58 | 1010.5 |
| 20260505094007 | 66 | 78 | 12.0 | 14.0 | 0.00 | 0.00 | 0.00 | 58 | 1010.5 |
| 20260505093508 | 67 | 71 | 17.0 | 18.0 | 0.00 | 0.00 | 0.00 | 57 | 1010.6 |
| 20260505092508 | 66 | 77 | 18.0 | 19.0 | 0.00 | 0.00 | 0.00 | 60 | 1010.7 |
| 20260505092007 | 66 | 76 | 16.0 | 17.0 | 0.00 | 0.00 | 0.00 | 60 | 1010.6 |
| 20260505091508 | 67 | 83 | 18.0 | 20.0 | 0.00 | 0.00 | 0.00 | 61 | 1010.7 |
| 20260505091007 | 67 | 80 | 14.0 | 15.0 | 0.00 | 0.00 | 0.00 | 63 | 1011.0 |
| 20260505090507 | 67 | 75 | 16.0 | 17.0 | 0.00 | 0.00 | 0.00 | 62 | 1010.8 |
| 20260505090008 | 67 | 85 | 14.0 | 17.0 | 0.00 | 0.00 | 0.00 | 64 | 1011.0 |
| 20260505085507 | 66 | 67 | 15.0 | 17.0 | 0.00 | 0.00 | 0.00 | 63 | 1010.8 |
| 20260505085007 | 66 | 69 | 16.0 | 19.0 | 0.00 | 0.00 | 0.00 | 65 | 1010.9 |
| 20260505084507 | 65 | 50 | 17.0 | 21.0 | 0.00 | 0.00 | 0.00 | 64 | 1010.6 |
| 20260505084007 | 64 | 69 | 16.0 | 20.0 | 0.00 | 0.00 | 0.00 | 66 | 1011.1 |
| 20260505083507 | 65 | 67 | 18.0 | 20.0 | 0.00 | 0.00 | 0.00 | 66 | 1011.0 |
| 20260505083008 | 64 | 71 | 13.0 | 14.0 | 0.00 | 0.00 | 0.00 | 68 | 1010.9 |
| 20260505082508 | 64 | 71 | 13.0 | 14.0 | 0.00 | 0.00 | 0.00 | 68 | 1011.0 |
| 20260505082007 | 30 | 0 | 0.0 | 0.0 | 0.00 | 0.00 | 0.00 | 100 | 1010.8 |
| 20260505081508 | 30 | 0 | 0.0 | 0.0 | 0.00 | 0.00 | 0.00 | 100 | 1010.9 |
| 20260505081007 | 30 | 0 | 0.0 | 0.0 | 0.00 | 0.00 | 0.00 | 100 | 1010.7 |
| 20260505080507 | 63 | 68 | 12.0 | 12.0 | 0.00 | 0.00 | 0.00 | 70 | 1011.1 |
| 20260505080007 | 63 | 68 | 12.0 | 12.0 | 0.00 | 0.00 | 0.00 | 70 | 1010.8 |
| 20260505075508 | 30 | 0 | 0.0 | 0.0 | 0.00 | 0.00 | 0.00 | 100 | 1010.7 |
| 20260505075008 | 30 | 0 | 0.0 | 0.0 | 0.00 | 0.00 | 0.00 | 100 | 1010.9 |
| 20260505074508 | 30 | 0 | 0.0 | 0.0 | 0.00 | 0.00 | 0.00 | 100 | 1010.7 |
| 20260505074008 | 62 | 53 | 15.0 | 17.0 | 0.00 | 0.00 | 0.00 | 71 | 1010.8 |
| 20260505073507 | 62 | 53 | 15.0 | 17.0 | 0.00 | 0.00 | 0.00 | 71 | 1010.9 |
| 20260505073007 | 62 | 54 | 14.0 | 15.0 | 0.00 | 0.00 | 0.00 | 72 | 1011.1 |
| 20260505072507 | 62 | 67 | 10.0 | 13.0 | 0.00 | 0.00 | 0.00 | 72 | 1011.1 |
| 20260505072007 | 62 | 64 | 11.0 | 13.0 | 0.00 | 0.00 | 0.00 | 73 | 1010.9 |
| 20260505071508 | 62 | 72 | 13.0 | 14.0 | 0.00 | 0.00 | 0.00 | 74 | 1010.9 |
| 20260505071007 | 62 | 71 | 13.0 | 14.0 | 0.00 | 0.00 | 0.00 | 74 | 1011.0 |
| 20260505070508 | 62 | 65 | 14.0 | 15.0 | 0.00 | 0.00 | 0.00 | 72 | 1011.0 |